TimeEDT,TemperatureF,Dew PointF,Humidity,Sea Level PressureIn,VisibilityMPH,Wind Direction,Wind SpeedMPH,Gust SpeedMPH,PrecipitationIn,Events,Conditions,WindDirDegrees,DateUTC
12:54 AM,44.1,39.9,85,30.05,10.0,Calm,Calm,-,N/A,,Clear,0,2013-06-15 04:54:00
1:54 AM,39.9,37.9,93,30.04,10.0,Calm,Calm,-,N/A,,Clear,0,2013-06-15 05:54:00
2:54 AM,39.0,37.0,93,30.04,10.0,Calm,Calm,-,N/A,,Clear,0,2013-06-15 06:54:00
3:54 AM,41.0,37.9,89,30.04,10.0,Calm,Calm,-,N/A,,Clear,0,2013-06-15 07:54:00
4:54 AM,44.1,41.0,89,30.03,10.0,Calm,Calm,-,N/A,,Clear,0,2013-06-15 08:54:00
5:54 AM,45.0,41.0,86,30.03,10.0,Calm,Calm,-,N/A,,Clear,0,2013-06-15 09:54:00
6:54 AM,46.9,41.0,80,30.04,10.0,Calm,Calm,-,N/A,,Partly Cloudy,0,2013-06-15 10:54:00
7:54 AM,51.1,43.0,74,30.04,10.0,Calm,Calm,-,N/A,,Partly Cloudy,0,2013-06-15 11:54:00
8:54 AM,55.9,42.1,60,30.05,10.0,Calm,Calm,-,N/A,,Mostly Cloudy,0,2013-06-15 12:54:00
9:54 AM,59.0,39.9,49,30.04,10.0,Calm,Calm,-,N/A,,Scattered Clouds,0,2013-06-15 13:54:00
10:54 AM,64.9,41.0,42,30.01,10.0,Calm,Calm,-,N/A,,Clear,0,2013-06-15 14:54:00
11:54 AM,66.9,44.1,44,29.99,10.0,Calm,Calm,-,N/A,,Clear,0,2013-06-15 15:54:00
12:54 PM,68.0,36.0,31,29.99,10.0,SSW,3.5,-,0.00,,Mostly Cloudy,210,2013-06-15 16:54:00
1:54 PM,72.0,39.0,30,29.99,10.0,WSW,8.1,-,N/A,,Clear,250,2013-06-15 17:54:00
2:54 PM,73.9,39.9,29,29.97,10.0,SSW,4.6,-,N/A,,Mostly Cloudy,210,2013-06-15 18:54:00
3:54 PM,75.0,44.1,33,29.95,10.0,SSW,6.9,-,N/A,,Clear,210,2013-06-15 19:54:00
4:54 PM,73.9,46.0,37,29.96,10.0,SW,10.4,-,N/A,,Mostly Cloudy,230,2013-06-15 20:54:00
5:54 PM,70.0,50.0,49,29.94,10.0,West,4.6,-,N/A,,Overcast,270,2013-06-15 21:54:00
6:54 PM,70.0,53.1,55,29.91,10.0,South,3.5,-,N/A,,Overcast,190,2013-06-15 22:54:00
7:54 PM,69.1,54.0,58,29.88,10.0,ESE,3.5,-,N/A,,Mostly Cloudy,120,2013-06-15 23:54:00
8:54 PM,69.1,55.0,61,29.86,10.0,Calm,Calm,-,N/A,,Overcast,0,2013-06-16 00:54:00
9:54 PM,63.0,59.0,87,29.84,10.0,SE,4.6,-,0.01,Rain,Light Rain,130,2013-06-16 01:54:00
10:54 PM,62.1,60.1,93,29.85,6.0,West,3.5,-,0.03,Rain,Light Rain,280,2013-06-16 02:54:00
11:25 PM,62.6,60.8,94,29.85,8.0,NNW,4.6,-,0.00,Rain,Light Rain,340,2013-06-16 03:25:00
11:54 PM,60.1,59.0,96,29.86,9.0,WNW,9.2,-,0.00,Rain,Light Rain,290,2013-06-16 03:54:00
11:59 PM,60.8,57.2,88,29.85,8.0,NW,6.9,-,0.00,Rain,Light Rain,310,2013-06-16 03:59:00